This is the latest recevied weather packets stored in our database for station/object KD7MPG-3. If no packets are shown the sender has not sent any weather packets the latest 1 day(s).
| Time | Temp. | Humidity | Pressure | Rain* | Wind** | Luminosity | Snow |
|---|---|---|---|---|---|---|---|
| 1836274815 | 21.11° C | 63% | 1021.2 hPa | 0 mm | 0.45 m/s, 315° | - | - |
| 1836274517 | 21.11° C | 62% | 1021.1 hPa | 0 mm | 0.45 m/s, 275° | - | - |
| 1836274365 | 21.11° C | 63% | 1021.1 hPa | 0 mm | 0 m/s | - | - |
| 1836274211 | 21.11° C | 62% | 1021.1 hPa | 0 mm | 0.45 m/s, 337° | - | - |
| 1836273912 | 21.11° C | 62% | 1021 hPa | 0 mm | 0.45 m/s, 302° | - | - |
| 1778052136 | 14.44° C | 85% | 1026 hPa | 0 mm | 0.45 m/s, 278° | - | - |
| 1778051835 | 15° C | 85% | 1026 hPa | 0 mm | 0.45 m/s, 279° | - | - |
| 1778051535 | 15° C | 85% | 1026 hPa | 0 mm | 0.45 m/s, 276° | - | - |
| 1778051237 | 15° C | 85% | 1025.9 hPa | 0 mm | 0.45 m/s, 316° | - | - |
| 1778050935 | 15° C | 85% | 1026 hPa | 0 mm | 0.45 m/s, 303° | - | - |
| 1778050636 | 15° C | 85% | 1025.9 hPa | 0 mm | 0 m/s | - | - |
| 1778050335 | 15° C | 85% | 1025.8 hPa | 0 mm | 0.45 m/s, 296° | - | - |
| 1778050031 | 15° C | 85% | 1025.8 hPa | 0 mm | 0.45 m/s, 296° | - | - |
| 1778049733 | 15° C | 85% | 1025.8 hPa | 0 mm | 0 m/s | - | - |
| 1778049431 | 15° C | 84% | 1025.8 hPa | 0 mm | 0 m/s | - | - |
| 1778049129 | 15° C | 85% | 1025.8 hPa | 0 mm | 0 m/s | - | - |
| 1778048831 | 15° C | 84% | 1025.7 hPa | 0 mm | 0.45 m/s, 296° | - | - |
| 1778048524 | 15° C | 84% | 1025.7 hPa | 0 mm | 0.45 m/s, 296° | - | - |
| 1778048223 | 15° C | 84% | 1025.6 hPa | 0 mm | 0.45 m/s, 300° | - | - |
| 1778047924 | 15° C | 84% | 1025.5 hPa | 0 mm | 0.45 m/s, 297° | - | - |
| 1778047623 | 15° C | 84% | 1025.6 hPa | 0 mm | 0 m/s | - | - |
| 1778047324 | 15° C | 84% | 1025.6 hPa | 0 mm | 0.45 m/s, 269° | - | - |
| 1778047025 | 15° C | 84% | 1025.6 hPa | 0 mm | 0.45 m/s, 291° | - | - |
| 1778046720 | 15° C | 84% | 1025.6 hPa | 0 mm | 0.45 m/s, 343° | - | - |
| 1778046419 | 15° C | 84% | 1025.5 hPa | 0 mm | 0.45 m/s, 315° | - | - |
* Rain latest hour (hover to see other rain measurements)
** Current wind speed in m/s (hover to see current wind gust speed)